Sheboygan Falls, WI

4:35 PM CST on February 07, 2016 (GMT -0600)
Sheboygan County Memorial

Weather History for KSBM - August, 2014

Change the Weather History Date:

Monday, August 18, 2014

  Actual Average Record
Temperature  
Mean Temperature 63 °F -  
Max Temperature 75 °F 77 °F 90 °F (1966)
Min Temperature 51 °F 61 °F 48 °F (1963)
Degree Days  
Heating Degree Days 2    
Growing Degree Days 13 (Base 50)    
Moisture  
Dew Point 58 °F    
Average Humidity 90    
Maximum Humidity 100    
Minimum Humidity 69    
Precipitation  
Precipitation 0.67 in - - ()
Sea Level Pressure  
Sea Level Pressure 29.87 in    
Wind  
Wind Speed 4 mph (SSE)    
Max Wind Speed 26 mph    
Max Gust Speed 39 mph    
Visibility 5 miles    
Events Fog , Rain , Thunderstorm    
Averages and records for this station are not official NWS values.
T = Trace of Precipitation, MM = Missing Value Source: NWS Daily Summary

Daily Weather History Graph

Daily Weather History Graph

Search for Another Location

Airport or City:

Trip Planner

Search our weather history database for the weather conditions in past years. The results will help you decide how hot, cold, wet, or windy it might be!

Date:

Astronomy

Aug. 18, 2014 Rise Set
Actual Time 5:59 AM CDT 7:50 PM CDT
Civil Twilight 5:28 AM CDT 8:21 PM CDT
Nautical Twilight 4:50 AM CDT 8:58 PM CDT
Astronomical Twilight 4:09 AM CDT 9:39 PM CDT
Moon 12:03 AM CDT (8/18) 2:56 PM CDT (8/18)
Length of Visible Light 14h 52m
Length of Day
13h 51m
Last Quarter, 38% of the Moon is Illuminated
Aug 18
Last Quarter
Aug 25
New
Sep 2
First Quarter
Sep 8
Full
Sep 15
Last Quarter

Hourly Weather History & Observations

Time (CDT) Temp. Dew Point Humidity Pressure Visibility Wind Dir Wind Speed Gust Speed Precip Events Conditions
12:04 AM 52.0 °F 51.1 °F 97% 29.97 in 0.5 mi NW 3.5 mph - N/A Fog Fog
12:29 AM 53.1 °F 52.0 °F 96% 29.97 in 1.2 mi Calm Calm - N/A   Partly Cloudy
12:33 AM 53.1 °F 52.0 °F 96% 29.97 in 4.0 mi Calm Calm - N/A   Partly Cloudy
12:41 AM 52.0 °F 51.1 °F 97% 29.97 in 1.8 mi Calm Calm - N/A   Scattered Clouds
12:45 AM 52.0 °F 51.1 °F 97% 29.97 in 2.0 mi Calm Calm - N/A   Mostly Cloudy
12:53 AM 52.0 °F 51.1 °F 97% 29.96 in 0.5 mi NW 3.5 mph - N/A Fog Fog
1:20 AM 53.1 °F 52.0 °F 96% 29.95 in 1.2 mi WNW 3.5 mph - N/A   Partly Cloudy
1:25 AM 54.0 °F 52.0 °F 93% 29.95 in 3.0 mi WNW 4.6 mph - N/A   Partly Cloudy
1:41 AM 53.1 °F 53.1 °F 100% 29.94 in 1.8 mi Calm Calm - N/A   Clear
1:51 AM 51.8 °F 51.8 °F 100% 29.94 in 3.0 mi Calm Calm - N/A   Clear
1:53 AM 53.1 °F 52.0 °F 96% 29.94 in 3.0 mi Calm Calm - N/A   Clear
1:58 AM 53.1 °F 51.1 °F 93% 29.94 in 1.8 mi Calm Calm - N/A   Clear
2:04 AM 52.0 °F 51.1 °F 97% 29.94 in 0.8 mi Calm Calm - N/A   Mist
2:16 AM 52.0 °F 52.0 °F 100% 29.93 in 2.5 mi West 3.5 mph - N/A   Clear
2:23 AM 52.0 °F 51.1 °F 97% 29.92 in 3.0 mi Calm Calm - N/A   Partly Cloudy
2:37 AM 52.0 °F 51.1 °F 97% 29.92 in 1.8 mi Calm Calm - N/A   Scattered Clouds
2:42 AM 52.0 °F 52.0 °F 100% 29.92 in 0.8 mi Calm Calm - N/A   Mist
2:53 AM 52.0 °F 51.1 °F 97% 29.93 in 0.5 mi Calm Calm - N/A Fog Fog
3:03 AM 53.1 °F 51.1 °F 93% 29.93 in 1.2 mi Calm Calm - N/A   Partly Cloudy
3:12 AM 52.0 °F 51.1 °F 97% 29.93 in 3.0 mi Calm Calm - N/A   Clear
3:53 AM 52.0 °F 51.1 °F 97% 29.94 in 4.0 mi Calm Calm - N/A   Clear
4:53 AM 53.1 °F 52.0 °F 96% 29.93 in 7.0 mi Calm Calm - N/A   Mostly Cloudy
5:53 AM 55.0 °F 54.0 °F 96% 29.93 in 7.0 mi Calm Calm - N/A   Overcast
6:53 AM 57.0 °F 55.0 °F 93% 29.93 in 6.0 mi Calm Calm - N/A   Overcast
7:53 AM 59.0 °F 57.0 °F 93% 29.92 in 10.0 mi Calm Calm - N/A   Overcast
8:53 AM 61.0 °F 59.0 °F 93% 29.91 in 10.0 mi South 5.8 mph - N/A   Mostly Cloudy
9:53 AM 64.9 °F 61.0 °F 87% 29.90 in 10.0 mi Variable 4.6 mph - N/A   Overcast
10:53 AM 66.0 °F 61.0 °F 84% 29.89 in 10.0 mi SSE 4.6 mph - N/A   Overcast
11:53 AM 70.0 °F 62.1 °F 76% 29.87 in 10.0 mi SSE 4.6 mph - N/A   Overcast
12:21 PM 72.0 °F 63.0 °F 73% 29.86 in 10.0 mi SSE 8.1 mph - N/A   Overcast
12:53 PM 75.0 °F 64.0 °F 69% 29.85 in 10.0 mi South 10.4 mph - N/A   Partly Cloudy
1:53 PM 73.0 °F 64.9 °F 76% 29.85 in 10.0 mi SE 8.1 mph - N/A   Mostly Cloudy
2:53 PM 75.0 °F 66.0 °F 73% 29.82 in 9.0 mi SSE 11.5 mph - N/A   Clear
3:53 PM 73.9 °F 64.9 °F 73% 29.80 in 10.0 mi SSE 13.8 mph - N/A   Scattered Clouds
4:53 PM 73.0 °F 64.9 °F 76% 29.79 in 10.0 mi SSE 10.4 mph - N/A   Mostly Cloudy
5:53 PM 73.0 °F 64.9 °F 76% 29.77 in 9.0 mi SSE 9.2 mph - N/A   Scattered Clouds
6:15 PM 71.1 °F 64.9 °F 81% 29.78 in 7.0 mi SSE 6.9 mph - N/A Thunderstorm Scattered Clouds
6:30 PM 71.1 °F 64.0 °F 78% 29.78 in 7.0 mi Calm Calm - N/A   Mostly Cloudy
6:45 PM 70.0 °F 63.0 °F 78% 29.79 in 8.0 mi NNE 11.5 mph - N/A Thunderstorm Overcast
6:53 PM 69.1 °F 62.1 °F 78% 29.80 in 10.0 mi North 9.2 mph - N/A Thunderstorm Thunderstorm
7:05 PM 66.0 °F 63.0 °F 90% 29.79 in 2.5 mi NE 5.8 mph - 0.10 in Rain , Thunderstorm Heavy Thunderstorms and Rain
7:12 PM 66.0 °F 64.0 °F 93% 29.79 in 3.0 mi East 5.8 mph - 0.10 in Rain , Thunderstorm Light Thunderstorms and Rain
7:19 PM 66.9 °F 64.9 °F 93% 29.79 in 7.0 mi SE 5.8 mph - 0.12 in Rain , Thunderstorm Light Rain
7:23 PM 66.9 °F 64.0 °F 90% 29.78 in 2.5 mi ESE 9.2 mph - 0.20 in Rain Heavy Rain
7:39 PM 66.9 °F 64.9 °F 93% 29.78 in 7.0 mi ESE 5.8 mph - 0.27 in Rain Light Rain
7:53 PM 66.9 °F 64.9 °F 93% 29.77 in 10.0 mi SE 5.8 mph - 0.27 in Rain Light Rain
8:11 PM 66.9 °F 64.9 °F 93% 29.77 in 10.0 mi ESE 6.9 mph - 0.00 in Thunderstorm Overcast
8:20 PM 66.9 °F 64.0 °F 90% 29.81 in 5.0 mi NW 18.4 mph 32.2 mph 0.02 in Rain , Thunderstorm Light Thunderstorms and Rain
8:23 PM 66.0 °F 63.0 °F 90% 29.80 in 1.5 mi NW 26.5 mph 34.5 mph 0.20 in Rain , Thunderstorm Heavy Thunderstorms and Rain
8:31 PM 64.0 °F 62.1 °F 93% 29.77 in 0.8 mi North 21.9 mph 39.1 mph 0.37 in Rain , Thunderstorm Heavy Thunderstorms and Rain
8:34 PM 64.0 °F 61.0 °F 90% 29.77 in 1.5 mi North 16.1 mph 39.1 mph 0.38 in Rain , Thunderstorm Heavy Thunderstorms and Rain
8:38 PM 64.9 °F 61.0 °F 87% 29.77 in 3.0 mi North 11.5 mph 32.2 mph 0.38 in Rain , Thunderstorm Thunderstorms and Rain
8:53 PM 64.9 °F 61.0 °F 87% 29.79 in 10.0 mi SW 8.1 mph - 0.39 in Rain , Thunderstorm Light Rain
9:14 PM 64.9 °F 62.1 °F 90% 29.80 in 10.0 mi SSW 10.4 mph - 0.00 in Rain Light Rain
9:53 PM 64.0 °F 62.1 °F 93% 29.78 in 10.0 mi South 5.8 mph - 0.01 in Rain Light Rain
11:53 PM 63.0 °F 61.0 °F 93% 29.72 in 10.0 mi SW 4.6 mph - 0.00 in   Partly Cloudy